{"data":{"norad_id":39620,"intl_designator":"2014-012A","name":"COSMOS 2492 (754)","alt_names":[],"object_type":"PAYLOAD","status":"ACTIVE","operator":null,"country":"CIS","launch_date":"2014-03-23","launch_site_code":"PLMSC","launch_vehicle":null,"mission":null,"orbit_class":"UNKNOWN","rcs_meters":6.4006,"size_class":null,"mass_kg":null,"dimensions":null,"purposes":["nav"],"wikipedia_slug":null,"has_3d_model":false,"image_url":null,"decayed_at":null,"tle_current":{"epoch":"2026-09-18T17:17:50.754048Z","epoch_age_seconds":168023,"freshness":"FRESH","line1":"1 39620U 14012A   26261.72072632 -.00000035  00000+0  00000+0 0  9991","line2":"2 39620  65.2379 310.7526 0011995 306.9531  53.0076  2.13103532 97232","mean_motion":2.13103532,"eccentricity":0.0011995,"inclination_deg":65.2379,"raan_deg":310.7526,"arg_perigee_deg":306.9531,"mean_anomaly_deg":53.0076,"bstar":0,"rev_number":9723,"period_min":675.72788985966,"perigee_km":19099.168447369,"apogee_km":19160.36190469,"semimajor_km":25507.902176029,"source":"CELESTRAK","updated_at":"2026-09-20T09:00:46.276120Z"}}}